User: anonymous   Login
Location: Estes Par
(40.3770°N, 105.5210°W)
Time: 19:30:42
(UTC-06:00)
Language:

Oscar 11 - Orbit

View from above orbital plane
View from above orbital plane
View from above satellite
View from above satellite

Ground track
Ground track

The orbit data is extracted from the following two-line orbital elements,

1 14781U 84021B   18266.57606752 +.00000067 +00000-0 +14382-4 0  9992
2 14781 097.6415 298.5518 0009873 116.1723 244.0507 14.83031517838027
Epoch (UTC): 23 September 2018 13:49:32
Eccentricity: 0.0009873
inclination: 97.6415°
perigee height: 613 km
apogee height: 626 km
right ascension of ascending node: 298.5518°
argument of perigee: 116.1723°
revolutions per day: 14.83031517
mean anomaly at epoch: 244.0507°
orbit number at epoch: 83802

The dashed part of the orbit path shows where the satellite is in the earth's shadow,  

DLR